Regional Weather Roundup
Issued by NWS

Home | Current Version | Previous Version | Graphics & Text | Print | Product List | Glossary Off
Versions: 1 2 3 4 5 6 7 8 9 10 11 12 13 14 15 16 17 18 19 20 21 22 23 24 25 26 27 28 29 30 31 32 33 34 35 36 37 38 39 40 41 42 43 44 45 46 47 48 49 50

000
ASUS43 KMKX 262200
RWRWI

WISCONSIN REGIONAL WEATHER ROUNDUP
NATIONAL WEATHER SERVICE MILWAUKEE/SULLIVAN WI
500 PM CDT FRI MAY 26 2017

NOTE: "FAIR" INDICATES FEW OR NO CLOUDS BELOW 12,000 FEET WITH NO
SIGNIFICANT WEATHER AND/OR OBSTRUCTIONS TO VISIBILITY.

WIZ001-002-006>008-014>016-023>028-262300-
NORTHWEST WISCONSIN

CITY           SKY/WX    TMP DP  RH WIND       PRES   REMARKS
SUPERIOR ARPT  NOT AVBL
ASHLAND        MOSUNNY   73  55  53 S12       29.72F
HAYWARD        PTSUNNY   73  53  49 S13       29.74S
SIREN          MOSUNNY   76  55  46 S8G18     29.72S
CUMBERLAND     MOSUNNY   72  55  56 S10       29.75S
RICE LAKE      PTSUNNY   73  55  52 SW10      29.76S
CHETEK         CLOUDY    72  56  57 S5        29.76R
LADYSMITH      CLOUDY    70  55  58 S7        29.78S
EAU CLAIRE     NOT AVBL
MENOMONIE      PTSUNNY   74  56  55 S12       29.76S
NEW RICHMOND   MOSUNNY   75  55  50 S12       29.74F
OSCEOLA        MOSUNNY   76  56  49 S9G21     29.75S
$$

WIZ003>005-009-010-017-018-262300-
NORTH CENTRAL WISCONSIN

CITY           SKY/WX    TMP DP  RH WIND       PRES   REMARKS
MANITOWISH WTR PTSUNNY   66  56  69 SE8       29.79S
ARBOR VITAE    LGT RAIN  64  55  71 CALM      29.79F
WOODRUFF       LGT RAIN  64  55  71 CALM      29.79F
RHINELANDER    CLOUDY    70  52  52 S10       29.81S
EAGLE RIVER    CLOUDY    65  49  55 S3        29.80S
LAND O LAKES   CLOUDY    67  53  59 S3        29.82S
PHILLIPS       CLOUDY    67  54  64 S5        29.78S
TOMAHAWK       PTSUNNY   67  53  60 S3        29.80S
MEDFORD        CLOUDY    67  56  67 S7        29.78F
MERRILL        CLOUDY    71  55  58 S8        29.80S
$$

WIZ029-030-035-036-043>047-262300-
CENTRAL WISCONSIN

CITY           SKY/WX    TMP DP  RH WIND       PRES   REMARKS
WAUSAU         CLOUDY    71  53  52 S10       29.78F
MOSINEE        PTSUNNY   70  54  56 S10       29.81F
MARSHFIELD     PTSUNNY   69  50  50 S9        29.78F
STEVENS POINT  MOSUNNY   72  51  48 SW10      29.81S
WAUPACA        CLOUDY    71  57  59 SE12      29.81S
WAUTOMA        CLOUDY    71  56  58 S7        29.81F
WISC RAPIDS    MOSUNNY   73  53  49 SW10      29.81S
CAMP DOUGLAS   NOT AVBL
$$

WIZ011>013-019>022-031-037>040-048>050-262300-
NORTHEAST WISCONSIN

CITY           SKY/WX    TMP DP  RH WIND       PRES   REMARKS
ANTIGO         CLOUDY    68  54  59 S10       29.82S
SHAWANO        CLOUDY    74  52  46 S5        29.81F
OCONTO         MOSUNNY   67  54  62 S8        29.83S
STURGEON BAY   CLOUDY    65  52  62 SE9       29.85S
GREEN BAY      CLOUDY    69  58  67 S9        29.83S
MANITOWOC      NOT AVBL
APPLETON       PTSUNNY   66  52  59 SE9       29.82S
CLINTONVILLE   CLOUDY    72  54  53 S9        29.81S
OSHKOSH        CLOUDY    68  55  63 SE10      29.83R
$$

WIZ032>034-041-042-053>061-262300-
SOUTHWEST WISCONSIN

CITY           SKY/WX    TMP DP  RH WIND       PRES   REMARKS
LA CROSSE      CLOUDY    72  56  57 S9        29.78F
SPARTA         MOSUNNY   69  55  60 S7        29.81S
VIROQUA        CLOUDY    69  57  66 N9        29.81F
BOSCOBEL       CLOUDY    69  57  65 VRB5      29.81F
PRAIRIE DU CHI MOSUNNY   68  56  64 SE6       29.80F
PLATTEVILLE    CLOUDY    66  62  86 NE8       29.81S
$$

WIZ056-057-062-063-064-067-068-262300-
SOUTH CENTRAL WISCONSIN

CITY           SKY/WX    TMP DP  RH WIND       PRES   REMARKS
REEDSBURG      CLOUDY    65  56  73 S6        29.83S
BARABOO/DELLS  CLOUDY    64  54  70 S8        29.82S
LONE ROCK      NOT AVBL
MINERAL POINT  MOSUNNY   66  61  82 E8        29.82S
MADISON        LGT RAIN  61  59  93 S3        29.83R
MIDDLETON      CLOUDY    61  59  91 CALM      29.84S
WATERTOWN      CLOUDY    64  57  80 SE8       29.83S
MONROE         DRIZZLE   61  57  88 NE6       29.81S
JANESVILLE     LGT RAIN  61  55  82 SE7       29.83S
$$

WIZ051-052-058>065-066-070>072-262300-
SOUTHEAST WISCONSIN

CITY           SKY/WX    TMP DP  RH WIND       PRES   REMARKS
MILWAUKEE      LGT RAIN  60  55  83 SE5       29.86S
WAUKESHA       LGT RAIN  59  54  82 SE9       29.86R
MILWAUKEE/TIMM PTSUNNY   61  52  72 SE5       29.86R
RACINE         LGT RAIN  58  53  84 E5        29.87S
KENOSHA        RAIN      57  54  89 NE6       29.85S FOG
FOND DU LAC    CLOUDY    68  53  58 SE8       29.83S
SHEBOYGAN      PTSUNNY   65  54  67 SE6       29.85S
WEST BEND      PTSUNNY   64  54  68 S3        29.85S
JUNEAU         CLOUDY    65  55  68 SE8       29.84S
$$

LSZ147-162-262300-
LAKE SUPERIOR

STATION/POSITION TIME  TEMP    WIND        PRES    WAVE
                       AIR SEA DIR/SP/G            HT/PER
                 (UTC) (F)     (DEG/KT/KT) (MB)    (FT/S)
W MID LAKE BUOY  2050   40 37   40/  8/  8 1008.1F   0
DEVILS ISLAND    2100   54     140/  6/  7 1007.0F
PORT WING        2120   45      40/ 11/ 18 1006.1F
SAXON HARBOR     2130          170/  3/  5 1006.8S
$$

LMZ867-665-643>646-262300-
LAKE MICHIGAN

STATION/POSITION TIME  TEMP    WIND        PRES    WAVE
                       AIR SEA DIR/SP/G            HT/PER
                 (UTC) (F)     (DEG/KT/KT) (MB)    (FT/S)
CHAMBERS ISLAND  2140   65      80/  6/  8 1010.2F
N MID LAKE BUOY  2050   43 43  220/  6/  6 1011.8F   0
NORTHPORT PIER   2130   58     150/  5/  7 1010.5F
KEWAUNEE LAKESHO 2130   49     150/  5/  6 1010.6S
SHEBOYGAN LAKESH 2100   54     170/ 10/ 10 1010.8F
PORT WASHINGTON  2130   53     170/  2/  3 1012.2R
ATWATER BUOY     2039   47      70/  4/  4 1011.1F
MILWAUKEE LAKESH 2130   49      70/  2/  2   N/A
S MID LAKE BUOY  2050   49 48   50/  2/  2 1011.2F   1
KENOSHA   LAKESH 2100   50      CALM  /  2 1011.2
$$

TC  - TEMPERATURE IN CELSIUS
VSB - VISIBILITY IN STATUTE MILES
WCI - WIND CHILL INDEX
HX  - HEAT INDEX





USA.gov is the U.S. government's official web portal to all federal, state and local government web resources and services.